This is the latest recevied weather packets stored in our database for station/object N3WGC-14. If no packets are shown the sender has not sent any weather packets the latest 10 day(s).
| Time | Temp. | Humidity | Pressure | Rain* | Wind** | Luminosity | Snow |
|---|---|---|---|---|---|---|---|
| 1777839877 | 15.56° C | 41% | 1014.4 hPa | 0 mm | - | - | - |
| 1777839577 | 15.56° C | 41% | 1014.5 hPa | 0 mm | - | - | - |
| 1777839277 | 15.56° C | 41% | 1014.5 hPa | 0 mm | - | - | - |
| 1777838977 | 15.56° C | 42% | 1014.6 hPa | 0 mm | - | - | - |
| 1777838677 | 15° C | 44% | 1014.6 hPa | 0 mm | - | - | - |
| 1777838377 | 15.56° C | 43% | 1014.8 hPa | 0 mm | - | - | - |
| 1777838076 | 15.56° C | 43% | 1014.8 hPa | 0 mm | - | - | - |
| 1777837776 | 15° C | 46% | 1014.8 hPa | 0 mm | - | - | - |
| 1777837476 | 15° C | 44% | 1014.9 hPa | 0 mm | - | - | - |
| 1777837176 | 15° C | 46% | 1014.9 hPa | 0 mm | - | - | - |
| 1777836876 | 15° C | 43% | 1014.9 hPa | 0 mm | - | - | - |
| 1777836576 | 15° C | 44% | 1015 hPa | 0 mm | - | - | - |
| 1777836276 | 15° C | 44% | 1015 hPa | 0 mm | - | - | - |
| 1777835975 | 15° C | 44% | 1015.1 hPa | 0 mm | - | - | - |
| 1777835675 | 14.44° C | 45% | 1015.2 hPa | 0 mm | - | - | - |
| 1777835375 | 14.44° C | 42% | 1015.3 hPa | 0 mm | - | - | - |
| 1777835075 | 14.44° C | 44% | 1015.3 hPa | 0 mm | - | - | - |
| 1777834775 | 14.44° C | 46% | 1015.3 hPa | 0 mm | - | - | - |
| 1777834475 | 14.44° C | 43% | 1015.4 hPa | 0 mm | - | - | - |
| 1777834175 | 14.44° C | 45% | 1015.3 hPa | 0 mm | - | - | - |
| 1777833874 | 13.89° C | 46% | 1015.5 hPa | 0 mm | - | - | - |
| 1777833574 | 13.89° C | 45% | 1015.6 hPa | 0 mm | - | - | - |
| 1777833274 | 13.89° C | 45% | 1015.6 hPa | 0 mm | - | - | - |
| 1777832974 | 13.89° C | 45% | 1015.6 hPa | 0 mm | - | - | - |
| 1777832674 | 13.89° C | 46% | 1015.6 hPa | 0 mm | - | - | - |
* Rain latest hour (hover to see other rain measurements)
** Current wind speed in m/s (hover to see current wind gust speed)